Time,TemperatureF,DewpointF,PressureIn,WindDirection,WindDirectionDegrees,WindSpeedMPH,WindSpeedGustMPH,Humidity,HourlyPrecipIn,Conditions,Clouds,dailyrainin,SoftwareType,DateUTC
2013-03-06 00:00:00,21.0,7.4,30.07,North,360,3.0,7.0,55,0.00,,---,0.00,VWS V14.01,2013-03-06 07:00:00,
2013-03-06 00:01:00,22.4,9.1,30.09,NNE,25,8.0,11.0,56,0.00,,---,0.00,VWS V14.01,2013-03-06 07:01:00,
2013-03-06 00:10:00,23.1,6.3,30.02,North,355,10.0,13.0,48,0.00,,---,0.00,VWS V14.01,2013-03-06 07:10:00,
2013-03-06 00:11:00,21.6,8.3,30.07,NNE,22,6.0,10.0,56,0.00,,---,0.00,VWS V14.01,2013-03-06 07:11:00,
2013-03-06 00:20:00,22.7,5.5,30.02,NNW,345,10.0,13.0,47,0.00,,---,0.00,VWS V14.01,2013-03-06 07:20:00,
2013-03-06 00:21:00,21.6,7.9,30.06,NNE,20,10.0,13.0,55,0.00,,---,0.00,VWS V14.01,2013-03-06 07:21:00,
2013-03-06 00:30:00,21.8,6.0,30.02,NNW,345,7.0,10.0,50,0.00,,---,0.00,VWS V14.01,2013-03-06 07:30:00,
2013-03-06 00:31:00,21.7,6.8,30.07,North,360,8.0,14.0,52,0.00,,---,0.00,VWS V14.01,2013-03-06 07:31:00,
2013-03-06 00:40:00,21.1,6.2,30.03,NNW,345,4.0,8.0,52,0.00,,---,0.00,VWS V14.01,2013-03-06 07:40:00,
2013-03-06 00:41:00,21.7,7.6,30.07,North,9,0.0,13.0,54,0.00,,---,0.00,VWS V14.01,2013-03-06 07:41:00,
2013-03-06 00:50:00,20.5,9.2,30.03,NNW,345,3.0,6.0,61,0.00,,---,0.00,VWS V14.01,2013-03-06 07:50:00,
2013-03-06 00:51:00,21.2,7.2,30.07,North,360,3.0,9.0,54,0.00,,---,0.00,VWS V14.01,2013-03-06 07:51:00,
2013-03-06 01:00:00,20.6,7.8,30.03,NNW,345,3.0,7.0,57,0.00,,---,0.00,VWS V14.01,2013-03-06 08:00:00,
2013-03-06 01:01:00,21.0,7.4,30.07,North,360,3.0,7.0,55,0.00,,---,0.00,VWS V14.01,2013-03-06 08:01:00,
2013-03-06 01:10:00,20.5,8.1,30.01,NNW,345,0.0,6.0,58,0.00,,---,0.00,VWS V14.01,2013-03-06 08:10:00,
2013-03-06 01:11:00,23.1,6.3,30.02,North,355,10.0,13.0,48,0.00,,---,0.00,VWS V14.01,2013-03-06 08:11:00,
2013-03-06 01:20:00,20.0,7.6,30.03,NNW,345,2.0,8.0,58,0.00,,---,0.00,VWS V14.01,2013-03-06 08:20:00,
2013-03-06 01:21:00,22.7,5.5,30.02,NNW,345,10.0,13.0,47,0.00,,---,0.00,VWS V14.01,2013-03-06 08:21:00,
2013-03-06 01:30:00,19.7,6.6,30.03,NNW,345,5.0,9.0,56,0.00,,---,0.00,VWS V14.01,2013-03-06 08:30:00,
2013-03-06 01:31:00,21.8,6.0,30.02,NNW,345,7.0,10.0,50,0.00,,---,0.00,VWS V14.01,2013-03-06 08:31:00,
2013-03-06 01:40:00,19.7,6.6,30.02,NNW,346,5.0,11.0,56,0.00,,---,0.00,VWS V14.01,2013-03-06 08:40:00,
2013-03-06 01:41:00,21.1,6.2,30.03,NNW,345,4.0,8.0,52,0.00,,---,0.00,VWS V14.01,2013-03-06 08:41:00,
2013-03-06 01:50:00,19.9,7.9,30.01,NNW,346,3.0,7.0,59,0.00,,---,0.00,VWS V14.01,2013-03-06 08:50:00,
2013-03-06 01:51:00,20.5,9.2,30.03,NNW,345,3.0,6.0,61,0.00,,---,0.00,VWS V14.01,2013-03-06 08:51:00,
2013-03-06 02:00:00,20.3,7.5,30.01,NNW,346,0.0,7.0,57,0.00,,---,0.00,VWS V14.01,2013-03-06 09:00:00,
2013-03-06 02:01:00,20.6,7.8,30.03,NNW,345,3.0,7.0,57,0.00,,---,0.00,VWS V14.01,2013-03-06 09:01:00,
2013-03-06 02:10:00,20.4,6.8,30.01,NNW,346,5.0,7.0,55,0.00,,---,0.00,VWS V14.01,2013-03-06 09:10:00,
2013-03-06 02:11:00,20.5,8.1,30.01,NNW,345,0.0,6.0,58,0.00,,---,0.00,VWS V14.01,2013-03-06 09:11:00,
2013-03-06 02:20:00,19.9,6.8,30.01,NNW,346,0.0,6.0,56,0.00,,---,0.00,VWS V14.01,2013-03-06 09:20:00,
2013-03-06 02:21:00,20.0,7.6,30.03,NNW,345,2.0,8.0,58,0.00,,---,0.00,VWS V14.01,2013-03-06 09:21:00,
2013-03-06 02:30:00,20.7,7.1,30.01,NNW,346,0.0,11.0,55,0.00,,---,0.00,VWS V14.01,2013-03-06 09:30:00,
2013-03-06 02:31:00,19.7,6.6,30.03,NNW,345,5.0,9.0,56,0.00,,---,0.00,VWS V14.01,2013-03-06 09:31:00,
2013-03-06 02:40:00,20.2,6.2,30.00,NNW,346,6.0,11.0,54,0.00,,---,0.00,VWS V14.01,2013-03-06 09:40:00,
2013-03-06 02:41:00,19.7,6.6,30.02,NNW,346,5.0,11.0,56,0.00,,---,0.00,VWS V14.01,2013-03-06 09:41:00,
2013-03-06 02:50:00,19.8,6.7,30.00,NNW,345,5.0,7.0,56,0.00,,---,0.00,VWS V14.01,2013-03-06 09:50:00,
2013-03-06 02:51:00,19.9,7.9,30.01,NNW,346,3.0,7.0,59,0.00,,---,0.00,VWS V14.01,2013-03-06 09:51:00,
2013-03-06 03:00:00,20.5,7.7,30.00,NNW,346,0.0,9.0,57,0.00,,---,0.00,VWS V14.01,2013-03-06 10:00:00,
2013-03-06 03:01:00,20.3,7.5,30.01,NNW,346,0.0,7.0,57,0.00,,---,0.00,VWS V14.01,2013-03-06 10:01:00,
2013-03-06 03:10:00,20.9,7.7,30.02,NNW,345,4.0,7.0,56,0.00,,---,0.00,VWS V14.01,2013-03-06 10:10:00,
2013-03-06 03:11:00,20.4,6.8,30.01,NNW,346,5.0,7.0,55,0.00,,---,0.00,VWS V14.01,2013-03-06 10:11:00,
2013-03-06 03:20:00,21.2,8.0,30.01,NNW,346,0.0,6.0,56,0.00,,---,0.00,VWS V14.01,2013-03-06 10:20:00,
2013-03-06 03:21:00,19.9,6.8,30.01,NNW,346,0.0,6.0,56,0.00,,---,0.00,VWS V14.01,2013-03-06 10:21:00,
2013-03-06 03:30:00,20.2,5.8,30.02,NNW,345,5.0,12.0,53,0.00,,---,0.00,VWS V14.01,2013-03-06 10:30:00,
2013-03-06 03:31:00,20.7,7.1,30.01,NNW,346,0.0,11.0,55,0.00,,---,0.00,VWS V14.01,2013-03-06 10:31:00,
2013-03-06 03:40:00,19.7,6.6,30.01,NNW,346,4.0,9.0,56,0.00,,---,0.00,VWS V14.01,2013-03-06 10:40:00,
2013-03-06 03:41:00,20.2,6.2,30.00,NNW,346,6.0,11.0,54,0.00,,---,0.00,VWS V14.01,2013-03-06 10:41:00,
2013-03-06 03:50:00,19.2,6.9,30.03,NNW,346,0.0,7.0,58,0.00,,---,0.00,VWS V14.01,2013-03-06 10:50:00,
2013-03-06 03:51:00,19.8,6.7,30.00,NNW,345,5.0,7.0,56,0.00,,---,0.00,VWS V14.01,2013-03-06 10:51:00,
2013-03-06 04:00:00,19.1,6.0,30.03,NNW,345,5.0,8.0,56,0.00,,---,0.00,VWS V14.01,2013-03-06 11:00:00,
2013-03-06 04:01:00,20.5,7.7,30.00,NNW,346,0.0,9.0,57,0.00,,---,0.00,VWS V14.01,2013-03-06 11:01:00,
2013-03-06 04:10:00,18.8,5.7,30.06,NNW,346,7.0,8.0,56,0.00,,---,0.00,VWS V14.01,2013-03-06 11:10:00,
2013-03-06 04:11:00,20.9,7.7,30.02,NNW,345,4.0,7.0,56,0.00,,---,0.00,VWS V14.01,2013-03-06 11:11:00,
2013-03-06 04:20:00,18.6,5.1,30.06,North,349,9.0,13.0,55,0.00,,---,0.00,VWS V14.01,2013-03-06 11:20:00,
2013-03-06 04:21:00,21.2,8.0,30.01,NNW,346,0.0,6.0,56,0.00,,---,0.00,VWS V14.01,2013-03-06 11:21:00,
2013-03-06 04:30:00,17.9,4.5,30.08,North,349,9.0,10.0,55,0.00,,---,0.00,VWS V14.01,2013-03-06 11:30:00,
2013-03-06 04:31:00,20.2,5.8,30.02,NNW,345,5.0,12.0,53,0.00,,---,0.00,VWS V14.01,2013-03-06 11:31:00,
2013-03-06 04:40:00,17.7,5.1,30.08,North,349,9.0,10.0,57,0.00,,---,0.00,VWS V14.01,2013-03-06 11:40:00,
2013-03-06 04:41:00,19.7,6.6,30.01,NNW,346,4.0,9.0,56,0.00,,---,0.00,VWS V14.01,2013-03-06 11:41:00,
2013-03-06 04:50:00,18.1,5.1,30.07,North,350,1.0,11.0,56,0.00,,---,0.00,VWS V14.01,2013-03-06 11:50:00,
2013-03-06 04:51:00,19.2,6.9,30.03,NNW,346,0.0,7.0,58,0.00,,---,0.00,VWS V14.01,2013-03-06 11:51:00,
2013-03-06 05:00:00,18.3,4.8,30.07,North,350,4.0,5.0,55,0.00,,---,0.00,VWS V14.01,2013-03-06 12:00:00,
2013-03-06 05:01:00,19.1,6.0,30.03,NNW,345,5.0,8.0,56,0.00,,---,0.00,VWS V14.01,2013-03-06 12:01:00,
2013-03-06 05:10:00,18.1,5.4,30.11,North,350,0.0,7.0,57,0.00,,---,0.00,VWS V14.01,2013-03-06 12:10:00,
2013-03-06 05:11:00,18.8,5.7,30.06,NNW,346,7.0,8.0,56,0.00,,---,0.00,VWS V14.01,2013-03-06 12:11:00,
2013-03-06 05:20:00,17.6,5.3,30.11,North,349,0.0,7.0,58,0.00,,---,0.00,VWS V14.01,2013-03-06 12:20:00,
2013-03-06 05:21:00,18.6,5.1,30.06,North,349,9.0,13.0,55,0.00,,---,0.00,VWS V14.01,2013-03-06 12:21:00,
2013-03-06 05:30:00,17.7,5.4,30.10,North,350,0.0,5.0,58,0.00,,---,0.00,VWS V14.01,2013-03-06 12:30:00,
2013-03-06 05:31:00,17.9,4.5,30.08,North,349,9.0,10.0,55,0.00,,---,0.00,VWS V14.01,2013-03-06 12:31:00,
2013-03-06 05:40:00,18.0,5.0,30.10,North,349,0.0,7.0,56,0.00,,---,0.00,VWS V14.01,2013-03-06 12:40:00,
2013-03-06 05:41:00,17.7,5.1,30.08,North,349,9.0,10.0,57,0.00,,---,0.00,VWS V14.01,2013-03-06 12:41:00,
2013-03-06 05:50:00,18.1,5.4,30.10,North,349,2.0,6.0,57,0.00,,---,0.00,VWS V14.01,2013-03-06 12:50:00,
2013-03-06 05:51:00,18.1,5.1,30.07,North,350,1.0,11.0,56,0.00,,---,0.00,VWS V14.01,2013-03-06 12:51:00,
2013-03-06 06:00:00,19.0,6.7,30.10,North,350,4.0,7.0,58,0.00,,---,0.00,VWS V14.01,2013-03-06 13:00:00,
2013-03-06 06:01:00,18.3,4.8,30.07,North,350,4.0,5.0,55,0.00,,---,0.00,VWS V14.01,2013-03-06 13:01:00,
2013-03-06 06:10:00,20.3,6.7,30.14,NNW,346,7.0,12.0,55,0.00,,---,0.00,VWS V14.01,2013-03-06 13:10:00,
2013-03-06 06:11:00,18.1,5.4,30.11,North,350,0.0,7.0,57,0.00,,---,0.00,VWS V14.01,2013-03-06 13:11:00,
2013-03-06 06:20:00,21.5,6.6,30.12,NNW,346,3.0,10.0,52,0.00,,---,0.00,VWS V14.01,2013-03-06 13:20:00,
2013-03-06 06:21:00,17.6,5.3,30.11,North,349,0.0,7.0,58,0.00,,---,0.00,VWS V14.01,2013-03-06 13:21:00,
2013-03-06 06:30:00,22.7,7.7,30.10,NNW,346,0.0,10.0,52,0.00,,---,0.00,VWS V14.01,2013-03-06 13:30:00,
2013-03-06 06:31:00,17.7,5.4,30.10,North,350,0.0,5.0,58,0.00,,---,0.00,VWS V14.01,2013-03-06 13:31:00,
2013-03-06 06:40:00,23.9,7.1,30.11,North,351,0.0,11.0,48,0.00,,---,0.00,VWS V14.01,2013-03-06 13:40:00,
2013-03-06 06:41:00,18.0,5.0,30.10,North,349,0.0,7.0,56,0.00,,---,0.00,VWS V14.01,2013-03-06 13:41:00,
2013-03-06 06:50:00,24.9,7.5,30.09,North,350,0.0,5.0,47,0.00,,---,0.00,VWS V14.01,2013-03-06 13:50:00,
2013-03-06 06:51:00,18.1,5.4,30.10,North,349,2.0,6.0,57,0.00,,---,0.00,VWS V14.01,2013-03-06 13:51:00,
2013-03-06 07:00:00,26.9,9.9,30.07,North,350,0.0,6.0,48,0.00,,---,0.00,VWS V14.01,2013-03-06 14:00:00,
2013-03-06 07:01:00,19.0,6.7,30.10,North,350,4.0,7.0,58,0.00,,---,0.00,VWS V14.01,2013-03-06 14:01:00,
2013-03-06 07:10:00,29.0,10.8,30.07,North,350,0.0,3.0,46,0.00,,---,0.00,VWS V14.01,2013-03-06 14:10:00,
2013-03-06 07:11:00,20.3,6.7,30.14,NNW,346,7.0,12.0,55,0.00,,---,0.00,VWS V14.01,2013-03-06 14:11:00,
2013-03-06 07:20:00,31.0,9.5,30.06,North,351,0.0,0.0,40,0.00,,---,0.00,VWS V14.01,2013-03-06 14:20:00,
2013-03-06 07:21:00,21.5,6.6,30.12,NNW,346,3.0,10.0,52,0.00,,---,0.00,VWS V14.01,2013-03-06 14:21:00,
2013-03-06 07:30:00,30.8,8.8,30.06,North,350,2.0,8.0,39,0.00,,---,0.00,VWS V14.01,2013-03-06 14:30:00,
2013-03-06 07:31:00,22.7,7.7,30.10,NNW,346,0.0,10.0,52,0.00,,---,0.00,VWS V14.01,2013-03-06 14:31:00,
2013-03-06 07:40:00,31.9,9.2,30.05,North,351,2.0,9.0,38,0.00,,---,0.00,VWS V14.01,2013-03-06 14:40:00,
2013-03-06 07:41:00,23.9,7.1,30.11,North,351,0.0,11.0,48,0.00,,---,0.00,VWS V14.01,2013-03-06 14:41:00,
2013-03-06 07:50:00,33.1,9.1,30.03,North,350,0.0,3.0,36,0.00,,---,0.00,VWS V14.01,2013-03-06 14:50:00,
2013-03-06 07:51:00,24.9,7.5,30.09,North,350,0.0,5.0,47,0.00,,---,0.00,VWS V14.01,2013-03-06 14:51:00,
2013-03-06 08:00:00,34.4,9.6,30.03,North,350,0.0,4.0,35,0.00,,---,0.00,VWS V14.01,2013-03-06 15:00:00,
2013-03-06 08:01:00,26.9,9.9,30.07,North,350,0.0,6.0,48,0.00,,---,0.00,VWS V14.01,2013-03-06 15:01:00,
2013-03-06 08:10:00,35.7,9.4,30.05,North,351,1.0,2.0,33,0.00,,---,0.00,VWS V14.01,2013-03-06 15:10:00,
2013-03-06 08:11:00,29.0,10.8,30.07,North,350,0.0,3.0,46,0.00,,---,0.00,VWS V14.01,2013-03-06 15:11:00,
2013-03-06 08:20:00,36.3,10.6,30.05,North,351,0.0,4.0,34,0.00,,---,0.00,VWS V14.01,2013-03-06 15:20:00,
2013-03-06 08:21:00,31.0,9.5,30.06,North,351,0.0,0.0,40,0.00,,---,0.00,VWS V14.01,2013-03-06 15:21:00,
2013-03-06 08:30:00,36.2,11.2,30.05,NNE,26,2.0,5.0,35,0.00,,---,0.00,VWS V14.01,2013-03-06 15:30:00,
2013-03-06 08:31:00,30.8,8.8,30.06,North,350,2.0,8.0,39,0.00,,---,0.00,VWS V14.01,2013-03-06 15:31:00,
2013-03-06 08:40:00,37.0,11.3,30.02,NE,45,4.0,6.0,34,0.00,,---,0.00,VWS V14.01,2013-03-06 15:40:00,
2013-03-06 08:41:00,31.9,9.2,30.05,North,351,2.0,9.0,38,0.00,,---,0.00,VWS V14.01,2013-03-06 15:41:00,
2013-03-06 08:50:00,37.8,12.6,30.02,ESE,113,4.0,6.0,35,0.00,,---,0.00,VWS V14.01,2013-03-06 15:50:00,
2013-03-06 08:51:00,33.1,9.1,30.03,North,350,0.0,3.0,36,0.00,,---,0.00,VWS V14.01,2013-03-06 15:51:00,
2013-03-06 09:00:00,37.7,12.5,30.02,SSE,155,4.0,8.0,35,0.00,,---,0.00,VWS V14.01,2013-03-06 16:00:00,
2013-03-06 09:01:00,34.4,9.6,30.03,North,350,0.0,4.0,35,0.00,,---,0.00,VWS V14.01,2013-03-06 16:01:00,
2013-03-06 09:10:00,38.4,13.1,30.03,SSE,153,6.0,11.0,35,0.00,,---,0.00,VWS V14.01,2013-03-06 16:10:00,
2013-03-06 09:11:00,35.7,9.4,30.05,North,351,1.0,2.0,33,0.00,,---,0.00,VWS V14.01,2013-03-06 16:11:00,
2013-03-06 09:20:00,39.8,13.7,30.01,SE,141,3.0,7.0,34,0.00,,---,0.00,VWS V14.01,2013-03-06 16:20:00,
2013-03-06 09:21:00,36.3,10.6,30.05,North,351,0.0,4.0,34,0.00,,---,0.00,VWS V14.01,2013-03-06 16:21:00,
2013-03-06 09:30:00,40.6,14.4,29.99,SE,143,0.0,9.0,34,0.00,,---,0.00,VWS V14.01,2013-03-06 16:30:00,
2013-03-06 09:31:00,36.2,11.2,30.05,NNE,26,2.0,5.0,35,0.00,,---,0.00,VWS V14.01,2013-03-06 16:31:00,
2013-03-06 09:40:00,41.1,14.9,29.98,SE,131,0.0,8.0,34,0.00,,---,0.00,VWS V14.01,2013-03-06 16:40:00,
2013-03-06 09:41:00,37.0,11.2,30.02,NE,45,4.0,6.0,34,0.00,,---,0.00,VWS V14.01,2013-03-06 16:41:00,
2013-03-06 09:50:00,42.6,14.8,29.95,SE,145,4.0,7.0,32,0.00,,---,0.00,VWS V14.01,2013-03-06 16:50:00,
2013-03-06 09:51:00,37.8,12.6,30.02,ESE,113,4.0,6.0,35,0.00,,---,0.00,VWS V14.01,2013-03-06 16:51:00,
2013-03-06 10:00:00,43.1,15.3,29.96,SE,145,2.0,9.0,32,0.00,,---,0.00,VWS V14.01,2013-03-06 17:00:00,
2013-03-06 10:01:00,37.7,12.5,30.02,SSE,155,4.0,8.0,35,0.00,,---,0.00,VWS V14.01,2013-03-06 17:01:00,
2013-03-06 10:10:00,43.6,14.2,29.95,SE,144,3.0,6.0,30,0.00,,---,0.00,VWS V14.01,2013-03-06 17:10:00,
2013-03-06 10:11:00,38.4,13.1,30.03,SSE,153,6.0,11.0,35,0.00,,---,0.00,VWS V14.01,2013-03-06 17:11:00,
2013-03-06 10:20:00,45.0,15.4,29.95,ESE,113,5.0,10.0,30,0.00,,---,0.00,VWS V14.01,2013-03-06 17:20:00,
2013-03-06 10:21:00,39.8,13.7,30.01,SE,141,3.0,7.0,34,0.00,,---,0.00,VWS V14.01,2013-03-06 17:21:00,
2013-03-06 10:30:00,45.4,15.0,29.92,SE,136,6.0,12.0,29,0.00,,---,0.00,VWS V14.01,2013-03-06 17:30:00,
2013-03-06 10:31:00,40.6,14.4,29.99,SE,143,0.0,9.0,34,0.00,,---,0.00,VWS V14.01,2013-03-06 17:31:00,
2013-03-06 10:40:00,46.3,15.8,29.92,SE,145,10.0,12.0,29,0.00,,---,0.00,VWS V14.01,2013-03-06 17:40:00,
2013-03-06 10:41:00,41.1,14.9,29.98,SE,131,0.0,8.0,34,0.00,,---,0.00,VWS V14.01,2013-03-06 17:41:00,
2013-03-06 10:50:00,46.8,16.2,29.91,SE,126,6.0,10.0,29,0.00,,---,0.00,VWS V14.01,2013-03-06 17:50:00,
2013-03-06 10:51:00,42.6,14.8,29.95,SE,145,4.0,7.0,32,0.00,,---,0.00,VWS V14.01,2013-03-06 17:51:00,
2013-03-06 11:00:00,46.8,15.4,29.90,SE,139,4.0,12.0,28,0.00,,---,0.00,VWS V14.01,2013-03-06 18:00:00,
2013-03-06 11:01:00,43.1,15.3,29.96,SE,145,2.0,9.0,32,0.00,,---,0.00,VWS V14.01,2013-03-06 18:01:00,
2013-03-06 11:10:00,47.2,15.8,29.89,East,95,7.0,12.0,28,0.00,,---,0.00,VWS V14.01,2013-03-06 18:10:00,
2013-03-06 11:11:00,43.6,14.2,29.95,SE,144,3.0,6.0,30,0.00,,---,0.00,VWS V14.01,2013-03-06 18:11:00,
2013-03-06 11:20:00,48.0,15.6,29.88,ESE,113,5.0,11.0,27,0.00,,---,0.00,VWS V14.01,2013-03-06 18:20:00,
2013-03-06 11:21:00,45.0,15.4,29.95,ESE,113,5.0,10.0,30,0.00,,---,0.00,VWS V14.01,2013-03-06 18:21:00,
2013-03-06 11:30:00,48.3,16.7,29.87,East,96,4.0,13.0,28,0.00,,---,0.00,VWS V14.01,2013-03-06 18:30:00,
2013-03-06 11:31:00,45.4,15.0,29.92,SE,136,6.0,12.0,29,0.00,,---,0.00,VWS V14.01,2013-03-06 18:31:00,
2013-03-06 11:40:00,48.4,16.0,29.85,East,98,1.0,14.0,27,0.00,,---,0.00,VWS V14.01,2013-03-06 18:40:00,
2013-03-06 11:41:00,46.3,15.8,29.92,SE,145,10.0,12.0,29,0.00,,---,0.00,VWS V14.01,2013-03-06 18:41:00,
2013-03-06 11:50:00,49.2,18.3,29.84,SSE,156,4.0,12.0,29,0.00,,---,0.00,VWS V14.01,2013-03-06 18:50:00,
2013-03-06 11:51:00,46.8,16.2,29.91,SE,126,6.0,10.0,29,0.00,,---,0.00,VWS V14.01,2013-03-06 18:51:00,
2013-03-06 12:00:00,49.8,16.3,29.84,ESE,110,9.0,14.0,26,0.00,,---,0.00,VWS V14.01,2013-03-06 19:00:00,
2013-03-06 12:01:00,46.8,15.4,29.90,SE,139,4.0,12.0,28,0.00,,---,0.00,VWS V14.01,2013-03-06 19:01:00,
2013-03-06 12:10:00,50.0,17.4,29.83,SSE,158,1.0,16.0,27,0.00,,---,0.00,VWS V14.01,2013-03-06 19:10:00,
2013-03-06 12:11:00,47.2,15.8,29.89,East,95,7.0,12.0,28,0.00,,---,0.00,VWS V14.01,2013-03-06 19:11:00,
2013-03-06 12:20:00,50.5,16.9,29.81,South,169,5.0,15.0,26,0.00,,---,0.00,VWS V14.01,2013-03-06 19:20:00,
2013-03-06 12:21:00,48.0,15.6,29.88,ESE,113,5.0,11.0,27,0.00,,---,0.00,VWS V14.01,2013-03-06 19:21:00,
2013-03-06 12:30:00,50.2,17.5,29.83,SE,132,0.0,10.0,27,0.00,,---,0.00,VWS V14.01,2013-03-06 19:30:00,
2013-03-06 12:31:00,48.3,16.7,29.87,East,96,4.0,13.0,28,0.00,,---,0.00,VWS V14.01,2013-03-06 19:31:00,
2013-03-06 12:40:00,50.5,16.0,29.80,SE,141,6.0,12.0,25,0.00,,---,0.00,VWS V14.01,2013-03-06 19:40:00,
2013-03-06 12:41:00,48.4,16.0,29.85,East,98,1.0,14.0,27,0.00,,---,0.00,VWS V14.01,2013-03-06 19:41:00,
2013-03-06 12:50:00,51.0,17.3,29.80,SE,142,12.0,16.0,26,0.00,,---,0.00,VWS V14.01,2013-03-06 19:50:00,
2013-03-06 12:51:00,49.2,18.3,29.84,SSE,156,4.0,12.0,29,0.00,,---,0.00,VWS V14.01,2013-03-06 19:51:00,
2013-03-06 13:00:00,51.4,16.8,29.79,SE,126,9.0,14.0,25,0.00,,---,0.00,VWS V14.01,2013-03-06 20:00:00,
2013-03-06 13:01:00,49.8,16.3,29.84,ESE,110,9.0,14.0,26,0.00,,---,0.00,VWS V14.01,2013-03-06 20:01:00,
2013-03-06 13:10:00,51.8,9.7,29.79,South,186,3.0,29.0,18,0.00,,---,0.00,VWS V14.01,2013-03-06 20:10:00,
2013-03-06 13:11:00,50.0,17.4,29.83,SSE,158,1.0,16.0,27,0.00,,---,0.00,VWS V14.01,2013-03-06 20:11:00,
2013-03-06 13:20:00,51.9,10.9,29.78,South,183,20.0,30.0,19,0.00,,---,0.00,VWS V14.01,2013-03-06 20:20:00,
2013-03-06 13:21:00,50.5,16.9,29.81,South,169,5.0,15.0,26,0.00,,---,0.00,VWS V14.01,2013-03-06 20:21:00,
2013-03-06 13:30:00,52.2,10.0,29.78,WSW,248,7.0,24.0,18,0.00,,---,0.00,VWS V14.01,2013-03-06 20:30:00,
2013-03-06 13:31:00,50.2,17.5,29.83,SE,132,0.0,10.0,27,0.00,,---,0.00,VWS V14.01,2013-03-06 20:31:00,
2013-03-06 13:40:00,52.6,11.5,29.78,SW,219,5.0,14.0,19,0.00,,---,0.00,VWS V14.01,2013-03-06 20:40:00,
2013-03-06 13:41:00,50.5,16.0,29.80,SE,141,6.0,12.0,25,0.00,,---,0.00,VWS V14.01,2013-03-06 20:41:00,
2013-03-06 13:50:00,52.1,11.1,29.77,South,182,3.0,18.0,19,0.00,,---,0.00,VWS V14.01,2013-03-06 20:50:00,
2013-03-06 13:51:00,51.0,17.3,29.80,SE,142,12.0,16.0,26,0.00,,---,0.00,VWS V14.01,2013-03-06 20:51:00,
2013-03-06 14:00:00,52.4,10.1,29.77,SW,231,0.0,16.0,18,0.00,,---,0.00,VWS V14.01,2013-03-06 21:00:00,
2013-03-06 14:01:00,51.4,16.8,29.79,SE,126,9.0,14.0,25,0.00,,---,0.00,VWS V14.01,2013-03-06 21:01:00,
2013-03-06 14:10:00,52.4,10.1,29.76,WNW,295,2.0,9.0,18,0.00,,---,0.00,VWS V14.01,2013-03-06 21:10:00,
2013-03-06 14:11:00,51.8,9.7,29.79,South,186,3.0,29.0,18,0.00,,---,0.00,VWS V14.01,2013-03-06 21:11:00,
2013-03-06 14:20:00,53.2,12.0,29.74,West,266,4.0,13.0,19,0.00,,---,0.00,VWS V14.01,2013-03-06 21:20:00,
2013-03-06 14:21:00,51.9,10.9,29.78,South,183,20.0,30.0,19,0.00,,---,0.00,VWS V14.01,2013-03-06 21:21:00,
2013-03-06 14:30:00,52.6,14.9,29.74,SSE,155,10.0,20.0,22,0.00,,---,0.00,VWS V14.01,2013-03-06 21:30:00,
2013-03-06 14:31:00,52.2,10.0,29.78,WSW,248,7.0,24.0,18,0.00,,---,0.00,VWS V14.01,2013-03-06 21:31:00,
2013-03-06 14:40:00,53.2,13.2,29.74,SSW,197,18.0,22.0,20,0.00,,---,0.00,VWS V14.01,2013-03-06 21:40:00,
2013-03-06 14:41:00,52.6,11.5,29.78,SW,219,5.0,14.0,19,0.00,,---,0.00,VWS V14.01,2013-03-06 21:41:00,
2013-03-06 14:50:00,52.5,12.6,29.74,SSW,211,10.0,22.0,20,0.00,,---,0.00,VWS V14.01,2013-03-06 21:50:00,
2013-03-06 14:51:00,52.1,11.1,29.77,South,182,3.0,18.0,19,0.00,,---,0.00,VWS V14.01,2013-03-06 21:51:00,
2013-03-06 15:00:00,52.1,13.4,29.76,SW,215,5.0,24.0,21,0.00,,---,0.00,VWS V14.01,2013-03-06 22:00:00,
2013-03-06 15:01:00,52.4,10.1,29.77,SW,231,0.0,16.0,18,0.00,,---,0.00,VWS V14.01,2013-03-06 22:01:00,
2013-03-06 15:10:00,51.9,13.2,29.78,SW,222,4.0,16.0,21,0.00,,---,0.00,VWS V14.01,2013-03-06 22:10:00,
2013-03-06 15:11:00,52.4,10.1,29.76,WNW,295,2.0,9.0,18,0.00,,---,0.00,VWS V14.01,2013-03-06 22:11:00,
2013-03-06 15:20:00,51.3,12.7,29.78,South,172,11.0,26.0,21,0.00,,---,0.00,VWS V14.01,2013-03-06 22:20:00,
2013-03-06 15:21:00,53.2,12.0,29.74,West,266,4.0,13.0,19,0.00,,---,0.00,VWS V14.01,2013-03-06 22:21:00,
2013-03-06 15:30:00,51.4,12.8,29.78,SW,217,10.0,14.0,21,0.00,,---,0.00,VWS V14.01,2013-03-06 22:30:00,
2013-03-06 15:31:00,52.6,14.9,29.74,SSE,155,10.0,20.0,22,0.00,,---,0.00,VWS V14.01,2013-03-06 22:31:00,
2013-03-06 15:40:00,51.6,13.0,29.78,West,265,7.0,17.0,21,0.00,,---,0.00,VWS V14.01,2013-03-06 22:40:00,
2013-03-06 15:41:00,53.2,13.2,29.74,SSW,197,18.0,22.0,20,0.00,,---,0.00,VWS V14.01,2013-03-06 22:41:00,
2013-03-06 15:50:00,51.0,13.5,29.78,SSW,209,16.0,17.0,22,0.00,,---,0.00,VWS V14.01,2013-03-06 22:50:00,
2013-03-06 15:51:00,52.5,12.6,29.74,SSW,211,10.0,22.0,20,0.00,,---,0.00,VWS V14.01,2013-03-06 22:51:00,
2013-03-06 16:00:00,50.1,12.8,29.79,South,184,14.0,21.0,22,0.00,,---,0.00,VWS V14.01,2013-03-06 23:00:00,
2013-03-06 16:01:00,52.1,13.4,29.76,SW,215,5.0,24.0,21,0.00,,---,0.00,VWS V14.01,2013-03-06 23:01:00,
2013-03-06 16:10:00,49.5,12.2,29.80,SSW,213,0.0,18.0,22,0.00,,---,0.00,VWS V14.01,2013-03-06 23:10:00,
2013-03-06 16:11:00,51.9,13.2,29.78,SW,222,4.0,16.0,21,0.00,,---,0.00,VWS V14.01,2013-03-06 23:11:00,
2013-03-06 16:20:00,47.9,13.8,29.81,SSW,200,6.0,11.0,25,0.00,,---,0.00,VWS V14.01,2013-03-06 23:20:00,
2013-03-06 16:21:00,51.3,12.7,29.78,South,172,11.0,26.0,21,0.00,,---,0.00,VWS V14.01,2013-03-06 23:21:00,
2013-03-06 16:30:00,47.3,13.3,29.83,SW,227,13.0,24.0,25,0.00,,---,0.00,VWS V14.01,2013-03-06 23:30:00,
2013-03-06 16:31:00,51.4,12.8,29.78,SW,217,10.0,14.0,21,0.00,,---,0.00,VWS V14.01,2013-03-06 23:31:00,
2013-03-06 16:40:00,47.4,13.4,29.84,NNW,330,0.0,18.0,25,0.00,,---,0.00,VWS V14.01,2013-03-06 23:40:00,
2013-03-06 16:41:00,51.6,13.0,29.78,West,265,7.0,17.0,21,0.00,,---,0.00,VWS V14.01,2013-03-06 23:41:00,
2013-03-06 16:50:00,46.4,13.4,29.84,SE,132,1.0,10.0,26,0.00,,---,0.00,VWS V14.01,2013-03-06 23:50:00,
2013-03-06 16:51:00,51.0,13.5,29.78,SSW,209,16.0,17.0,22,0.00,,---,0.00,VWS V14.01,2013-03-06 23:51:00,
2013-03-06 17:00:00,45.4,12.5,29.84,ESE,117,0.0,2.0,26,0.00,,---,0.00,VWS V14.01,2013-03-07 00:00:00,
2013-03-06 17:01:00,50.1,12.8,29.79,South,184,14.0,21.0,22,0.00,,---,0.00,VWS V14.01,2013-03-07 00:01:00,
2013-03-06 17:10:00,45.4,12.5,29.84,SSW,212,4.0,18.0,26,0.00,,---,0.00,VWS V14.01,2013-03-07 00:10:00,
2013-03-06 17:11:00,49.5,12.2,29.80,SSW,213,0.0,18.0,22,0.00,,---,0.00,VWS V14.01,2013-03-07 00:11:00,
2013-03-06 17:20:00,45.9,12.1,29.84,SE,130,3.0,12.0,25,0.00,,---,0.00,VWS V14.01,2013-03-07 00:20:00,
2013-03-06 17:21:00,47.9,13.8,29.81,SSW,200,6.0,11.0,25,0.00,,---,0.00,VWS V14.01,2013-03-07 00:21:00,
2013-03-06 17:30:00,45.7,11.9,29.85,SSW,201,0.0,22.0,25,0.00,,---,0.00,VWS V14.01,2013-03-07 00:30:00,
2013-03-06 17:31:00,47.3,13.3,29.83,SW,227,13.0,24.0,25,0.00,,---,0.00,VWS V14.01,2013-03-07 00:31:00,
2013-03-06 17:40:00,46.0,10.3,29.86,ESE,109,0.0,27.0,23,0.00,,---,0.00,VWS V14.01,2013-03-07 00:40:00,
2013-03-06 17:41:00,47.4,13.4,29.84,NNW,330,0.0,18.0,25,0.00,,---,0.00,VWS V14.01,2013-03-07 00:41:00,
2013-03-06 17:50:00,45.4,9.8,29.86,SE,140,2.0,22.0,23,0.00,,---,0.00,VWS V14.01,2013-03-07 00:50:00,
2013-03-06 17:51:00,46.4,13.4,29.84,SE,132,1.0,10.0,26,0.00,,---,0.00,VWS V14.01,2013-03-07 00:51:00,
2013-03-06 18:00:00,44.7,10.1,29.87,SSW,199,3.0,19.0,24,0.00,,---,0.00,VWS V14.01,2013-03-07 01:00:00,
2013-03-06 18:01:00,45.4,12.5,29.84,ESE,117,0.0,2.0,26,0.00,,---,0.00,VWS V14.01,2013-03-07 01:01:00,
2013-03-06 18:10:00,44.1,9.6,29.81,SW,226,4.0,7.0,24,0.00,,---,0.00,VWS V14.01,2013-03-07 01:10:00,
2013-03-06 18:11:00,45.4,12.5,29.84,SSW,212,4.0,18.0,26,0.00,,---,0.00,VWS V14.01,2013-03-07 01:11:00,
2013-03-06 18:20:00,43.8,10.3,29.82,SSW,211,0.0,13.0,25,0.00,,---,0.00,VWS V14.01,2013-03-07 01:20:00,
2013-03-06 18:21:00,45.9,12.1,29.84,SE,130,3.0,12.0,25,0.00,,---,0.00,VWS V14.01,2013-03-07 01:21:00,
2013-03-06 18:30:00,43.0,9.6,29.82,SSW,211,0.0,0.0,25,0.00,,---,0.00,VWS V14.01,2013-03-07 01:30:00,
2013-03-06 18:31:00,45.7,11.9,29.85,SSW,201,0.0,22.0,25,0.00,,---,0.00,VWS V14.01,2013-03-07 01:31:00,
2013-03-06 18:40:00,42.3,10.7,29.82,SSW,211,0.0,1.0,27,0.00,,---,0.00,VWS V14.01,2013-03-07 01:40:00,
2013-03-06 18:41:00,46.0,10.3,29.86,ESE,109,0.0,27.0,23,0.00,,---,0.00,VWS V14.01,2013-03-07 01:41:00,
2013-03-06 18:50:00,41.0,10.4,29.83,WNW,303,6.0,6.0,28,0.00,,---,0.00,VWS V14.01,2013-03-07 01:50:00,
2013-03-06 18:51:00,45.4,9.8,29.86,SE,140,2.0,22.0,23,0.00,,---,0.00,VWS V14.01,2013-03-07 01:51:00,
2013-03-06 19:00:00,39.9,10.2,29.85,NNW,329,0.0,7.0,29,0.00,,---,0.00,VWS V14.01,2013-03-07 02:00:00,
2013-03-06 19:01:00,44.7,10.1,29.87,SSW,199,3.0,19.0,24,0.00,,---,0.00,VWS V14.01,2013-03-07 02:01:00,
2013-03-06 19:10:00,40.8,9.4,29.79,NNW,329,0.0,0.0,27,0.00,,---,0.00,VWS V14.01,2013-03-07 02:10:00,
2013-03-06 19:11:00,44.1,9.6,29.81,SW,226,4.0,7.0,24,0.00,,---,0.00,VWS V14.01,2013-03-07 02:11:00,
2013-03-06 19:20:00,38.3,10.3,29.81,NNW,336,0.0,3.0,31,0.00,,---,0.00,VWS V14.01,2013-03-07 02:20:00,
2013-03-06 19:21:00,43.8,10.3,29.82,SSW,211,0.0,13.0,25,0.00,,---,0.00,VWS V14.01,2013-03-07 02:21:00,
2013-03-06 19:30:00,39.0,10.2,29.81,NNW,336,0.0,1.0,30,0.00,,---,0.00,VWS V14.01,2013-03-07 02:30:00,
2013-03-06 19:31:00,43.0,9.6,29.82,SSW,211,0.0,0.0,25,0.00,,---,0.00,VWS V14.01,2013-03-07 02:31:00,
2013-03-06 19:40:00,40.4,10.7,29.79,NNW,336,0.0,2.0,29,0.00,,---,0.00,VWS V14.01,2013-03-07 02:40:00,
2013-03-06 19:41:00,42.3,10.7,29.82,SSW,211,0.0,1.0,27,0.00,,---,0.00,VWS V14.01,2013-03-07 02:41:00,
2013-03-06 19:50:00,41.8,11.1,29.77,SSW,200,2.0,14.0,28,0.00,,---,0.00,VWS V14.01,2013-03-07 02:50:00,
2013-03-06 19:51:00,41.0,10.4,29.83,WNW,303,6.0,6.0,28,0.00,,---,0.00,VWS V14.01,2013-03-07 02:51:00,
2013-03-06 20:00:00,40.6,10.9,29.79,West,263,1.0,13.0,29,0.00,,---,0.00,VWS V14.01,2013-03-07 03:00:00,
2013-03-06 20:01:00,39.9,10.2,29.85,NNW,329,0.0,7.0,29,0.00,,---,0.00,VWS V14.01,2013-03-07 03:01:00,
2013-03-06 20:10:00,37.7,11.2,29.78,West,273,1.0,3.0,33,0.00,,---,0.00,VWS V14.01,2013-03-07 03:10:00,
2013-03-06 20:11:00,40.8,9.4,29.79,NNW,329,0.0,0.0,27,0.00,,---,0.00,VWS V14.01,2013-03-07 03:11:00,
2013-03-06 20:20:00,36.8,11.7,29.80,West,281,0.0,6.0,35,0.00,,---,0.00,VWS V14.01,2013-03-07 03:20:00,
2013-03-06 20:21:00,38.3,10.3,29.81,NNW,336,0.0,3.0,31,0.00,,---,0.00,VWS V14.01,2013-03-07 03:21:00,
2013-03-06 20:30:00,36.6,12.2,29.80,West,280,0.0,2.0,36,0.00,,---,0.00,VWS V14.01,2013-03-07 03:30:00,
2013-03-06 20:31:00,39.0,10.2,29.81,NNW,336,0.0,1.0,30,0.00,,---,0.00,VWS V14.01,2013-03-07 03:31:00,
2013-03-06 20:40:00,35.9,10.9,29.80,West,280,0.0,0.0,35,0.00,,---,0.00,VWS V14.01,2013-03-07 03:40:00,
2013-03-06 20:41:00,40.4,10.7,29.79,NNW,336,0.0,2.0,29,0.00,,---,0.00,VWS V14.01,2013-03-07 03:41:00,
2013-03-06 20:50:00,36.9,11.8,29.80,West,269,0.0,3.0,35,0.00,,---,0.00,VWS V14.01,2013-03-07 03:50:00,
2013-03-06 20:51:00,41.8,11.1,29.77,SSW,200,2.0,14.0,28,0.00,,---,0.00,VWS V14.01,2013-03-07 03:51:00,
2013-03-06 21:00:00,36.4,12.6,29.80,SSE,148,2.0,9.0,37,0.00,,---,0.00,VWS V14.01,2013-03-07 04:00:00,
2013-03-06 21:01:00,40.6,10.9,29.79,West,263,1.0,13.0,29,0.00,,---,0.00,VWS V14.01,2013-03-07 04:01:00,
2013-03-06 21:10:00,36.0,13.5,29.77,South,174,0.0,3.0,39,0.00,,---,0.00,VWS V14.01,2013-03-07 04:10:00,
2013-03-06 21:11:00,37.7,11.2,29.78,West,273,1.0,3.0,33,0.00,,---,0.00,VWS V14.01,2013-03-07 04:11:00,
2013-03-06 21:20:00,35.8,12.1,29.77,SSE,157,0.0,1.0,37,0.00,,---,0.00,VWS V14.01,2013-03-07 04:20:00,
2013-03-06 21:21:00,36.8,11.7,29.80,West,281,0.0,6.0,35,0.00,,---,0.00,VWS V14.01,2013-03-07 04:21:00,
2013-03-06 21:30:00,34.7,12.3,29.77,SSE,155,0.0,0.0,39,0.00,,---,0.00,VWS V14.01,2013-03-07 04:30:00,
2013-03-06 21:31:00,36.6,12.2,29.80,West,280,0.0,2.0,36,0.00,,---,0.00,VWS V14.01,2013-03-07 04:31:00,
2013-03-06 21:40:00,33.7,12.0,29.79,SE,144,0.0,0.0,40,0.00,,---,0.00,VWS V14.01,2013-03-07 04:40:00,
2013-03-06 21:41:00,35.9,10.9,29.80,West,280,0.0,0.0,35,0.00,,---,0.00,VWS V14.01,2013-03-07 04:41:00,
2013-03-06 21:50:00,33.4,11.7,29.79,ENE,74,0.0,7.0,40,0.00,,---,0.00,VWS V14.01,2013-03-07 04:50:00,
2013-03-06 21:51:00,36.9,11.8,29.80,West,269,0.0,3.0,35,0.00,,---,0.00,VWS V14.01,2013-03-07 04:51:00,
2013-03-06 22:00:00,33.2,12.6,29.78,NNE,29,0.0,6.0,42,0.00,,---,0.00,VWS V14.01,2013-03-07 05:00:00,
2013-03-06 22:01:00,36.4,12.6,29.80,SSE,148,2.0,9.0,37,0.00,,---,0.00,VWS V14.01,2013-03-07 05:01:00,
2013-03-06 22:10:00,34.3,12.5,29.75,NNE,29,0.0,0.0,40,0.00,,---,0.00,VWS V14.01,2013-03-07 05:10:00,
2013-03-06 22:11:00,36.0,13.5,29.77,South,174,0.0,3.0,39,0.00,,---,0.00,VWS V14.01,2013-03-07 05:11:00,
2013-03-06 22:20:00,32.6,13.1,29.75,NNE,26,0.0,0.0,44,0.00,,---,0.00,VWS V14.01,2013-03-07 05:20:00,
2013-03-06 22:21:00,35.8,12.1,29.77,SSE,157,0.0,1.0,37,0.00,,---,0.00,VWS V14.01,2013-03-07 05:21:00,
2013-03-06 22:30:00,32.7,13.2,29.75,NNE,27,0.0,0.0,44,0.00,,---,0.00,VWS V14.01,2013-03-07 05:30:00,
2013-03-06 22:31:00,34.7,12.3,29.77,SSE,155,0.0,0.0,39,0.00,,---,0.00,VWS V14.01,2013-03-07 05:31:00,
2013-03-06 22:40:00,31.0,14.1,29.76,NNE,26,0.0,0.0,49,0.00,,---,0.00,VWS V14.01,2013-03-07 05:40:00,
2013-03-06 22:41:00,33.7,12.0,29.79,SE,144,0.0,0.0,40,0.00,,---,0.00,VWS V14.01,2013-03-07 05:41:00,
2013-03-06 22:50:00,30.6,13.3,29.76,NNE,19,6.0,9.0,48,0.00,,---,0.00,VWS V14.01,2013-03-07 05:50:00,
2013-03-06 22:51:00,33.4,11.7,29.79,ENE,74,0.0,7.0,40,0.00,,---,0.00,VWS V14.01,2013-03-07 05:51:00,
2013-03-06 23:00:00,31.0,13.6,29.77,NNE,19,0.0,7.0,48,0.00,,---,0.00,VWS V14.01,2013-03-07 06:00:00,
2013-03-06 23:01:00,33.2,12.6,29.78,NNE,29,0.0,6.0,42,0.00,,---,0.00,VWS V14.01,2013-03-07 06:01:00,
2013-03-06 23:10:00,31.3,13.4,29.75,North,355,3.0,8.0,47,0.00,,---,0.00,VWS V14.01,2013-03-07 06:10:00,
2013-03-06 23:11:00,34.3,12.5,29.75,NNE,29,0.0,0.0,40,0.00,,---,0.00,VWS V14.01,2013-03-07 06:11:00,
2013-03-06 23:20:00,31.7,13.8,29.73,North,355,0.0,8.0,47,0.00,,---,0.00,VWS V14.01,2013-03-07 06:20:00,
2013-03-06 23:21:00,32.6,13.1,29.75,NNE,26,0.0,0.0,44,0.00,,---,0.00,VWS V14.01,2013-03-07 06:21:00,
2013-03-06 23:30:00,32.4,13.4,29.74,North,355,0.0,0.0,45,0.00,,---,0.00,VWS V14.01,2013-03-07 06:30:00,
2013-03-06 23:31:00,32.7,13.2,29.75,NNE,27,0.0,0.0,44,0.00,,---,0.00,VWS V14.01,2013-03-07 06:31:00,
2013-03-06 23:40:00,30.8,13.4,29.75,North,355,4.0,7.0,48,0.00,,---,0.00,VWS V14.01,2013-03-07 06:40:00,
2013-03-06 23:41:00,31.0,14.1,29.76,NNE,26,0.0,0.0,49,0.00,,---,0.00,VWS V14.01,2013-03-07 06:41:00,
2013-03-06 23:50:00,32.1,13.7,29.73,NNW,347,0.0,9.0,46,0.00,,---,0.00,VWS V14.01,2013-03-07 06:50:00,
2013-03-06 23:51:00,30.6,13.3,29.76,NNE,19,6.0,9.0,48,0.00,,---,0.00,VWS V14.01,2013-03-07 06:51:00,